Zurück zum Katalog

STARLINK-5257

AktivKommunikationVLEO
NORAD 55316·PAYLOAD·🇺🇸 United States

Gestartet Jan 19, 2023 von Vandenberg Space Force Base

Loading…

Nächste Überflüge (nächste 24 Stunden)

TLE

AktuellSource: CelesTrak SupGP

Epoche: Sep 14, 2026, 22:15 UTC

1 55316C 23010AZ  26257.92756944  .00035124  00000+0  29431-2 0  2576
2 55316  69.9996 247.2134 0003904 268.3500   4.1413 14.98315549    16

Verfolge STARLINK-5257 in Echtzeit mit AllMySat

Download on the App Store